Glendive, MT

2:52 PM MST on November 18, 2017 (GMT -0700)
Dawson Community

Weather History for KGDV - July, 2014

Change the Weather History Date:

Thursday, July 24, 2014

  Actual Average Record
Temperature  
Mean Temperature 78 °F -  
Max Temperature 95 °F 84 °F 105 °F (2003)
Min Temperature 62 °F 57 °F 46 °F (2004)
Cooling Degree Days 14    
Growing Degree Days 28 (Base 50)    
Moisture  
Dew Point 58 °F    
Average Humidity 56    
Maximum Humidity 88    
Minimum Humidity 32    
Precipitation  
Precipitation 0.46 in - - ()
Sea Level Pressure  
Sea Level Pressure 29.80 in    
Wind  
Wind Speed 12 mph (East)    
Max Wind Speed 38 mph    
Max Gust Speed 47 mph    
Visibility 10 miles    
Events Thunderstorm    
Averages and records for this station are not official NWS values.
T = Trace of Precipitation, MM = Missing Value Source: NWS Daily Summary

Daily Weather History Graph

Daily Weather History Graph

Search for Another Location

Airport or City:

Trip Planner

Search our weather history database for the weather conditions in past years. The results will help you decide how hot, cold, wet, or windy it might be!

Date:

Astronomy

Jul. 24, 2014 Rise Set
Actual Time 5:28 AM MDT 8:42 PM MDT
Civil Twilight 4:51 AM MDT 9:18 PM MDT
Nautical Twilight 4:03 AM MDT 10:06 PM MDT
Astronomical Twilight 3:03 AM MDT 11:06 PM MDT
Moon 3:40 AM MDT (7/24) 6:56 PM MDT (7/24)
Length of Visible Light 16h 27m
Length of Day
15h 13m
Waning Crescent, 4% of the Moon is Illuminated
Jul 24
Waning Crescent
Jul 26
New
Aug 3
First Quarter
Aug 10
Full
Aug 17
Last Quarter

Hourly Weather History & Observations

Time (MDT) Temp. Heat Index Dew Point Humidity Pressure Visibility Wind Dir Wind Speed Gust Speed Precip Events Conditions
12:15 AM 73.4 °F - 55.4 °F 53% 29.92 in 10.0 mi ESE 9.2 mph - N/A   Clear
12:35 AM 73.4 °F - 55.4 °F 53% 29.92 in 10.0 mi East 6.9 mph - N/A   Clear
12:55 AM 71.6 °F - 55.4 °F 57% 29.91 in 10.0 mi ESE 8.1 mph - N/A   Clear
1:15 AM 71.6 °F - 55.4 °F 57% 29.90 in 10.0 mi ESE 8.1 mph - N/A   Clear
1:35 AM 71.6 °F - 55.4 °F 57% 29.89 in 10.0 mi ESE 6.9 mph - N/A   Clear
1:55 AM 71.6 °F - 55.4 °F 57% 29.87 in 10.0 mi East 8.1 mph - N/A   Clear
2:15 AM 71.6 °F - 55.4 °F 57% 29.86 in 10.0 mi ESE 9.2 mph - N/A   Clear
2:35 AM 69.8 °F - 55.4 °F 60% 29.85 in 10.0 mi East 6.9 mph - N/A   Clear
2:55 AM 69.8 °F - 55.4 °F 60% 29.84 in 10.0 mi SE 11.5 mph - N/A   Clear
3:15 AM 69.8 °F - 55.4 °F 60% 29.84 in 10.0 mi East 4.6 mph - N/A   Clear
3:35 AM 69.8 °F - 55.4 °F 60% 29.79 in 10.0 mi SE 11.5 mph - N/A   Clear
3:55 AM 69.8 °F - 53.6 °F 56% 29.81 in 10.0 mi Calm Calm - N/A   Clear
4:15 AM 68.0 °F - 55.4 °F 64% 29.88 in 10.0 mi NW 28.8 mph 36.8 mph N/A   Clear
4:35 AM 68.0 °F - 55.4 °F 64% 29.85 in 10.0 mi NE 6.9 mph 21.9 mph N/A   Clear
4:55 AM 68.0 °F - 55.4 °F 64% 29.85 in 10.0 mi NE 9.2 mph - N/A   Clear
5:15 AM 66.2 °F - 55.4 °F 68% 29.84 in 10.0 mi ENE 12.7 mph - N/A   Clear
5:35 AM 66.2 °F - 55.4 °F 68% 29.85 in 10.0 mi East 16.1 mph 23.0 mph N/A   Clear
5:55 AM 66.2 °F - 55.4 °F 68% 29.86 in 10.0 mi ENE 18.4 mph - N/A   Clear
6:15 AM 66.2 °F - 55.4 °F 68% 29.88 in 10.0 mi ENE 15.0 mph - N/A   Clear
6:35 AM 66.2 °F - 55.4 °F 68% 29.86 in 10.0 mi ENE 15.0 mph - N/A   Clear
6:55 AM 68.0 °F - 55.4 °F 64% 29.85 in 10.0 mi East 13.8 mph - N/A   Clear
7:15 AM 69.8 °F - 55.4 °F 60% 29.86 in 10.0 mi East 12.7 mph - N/A   Clear
7:35 AM 69.8 °F - 57.2 °F 64% 29.86 in 10.0 mi East 12.7 mph - N/A   Clear
7:55 AM 69.8 °F - 57.2 °F 64% 29.86 in 10.0 mi East 16.1 mph - N/A   Clear
8:15 AM 71.6 °F - 57.2 °F 60% 29.86 in 10.0 mi East 17.3 mph 20.7 mph N/A   Clear
8:35 AM - - - N/A% 29.83 in 10.0 mi East 17.3 mph - N/A   Clear
8:55 AM - - - N/A% 29.83 in 10.0 mi East 19.6 mph - N/A   Clear
9:15 AM 71.6 °F - 57.2 °F 60% 29.81 in 10.0 mi East 18.4 mph 24.2 mph 0.03 in   Clear
9:35 AM 73.4 °F - 59.0 °F 61% 29.80 in 10.0 mi East 19.6 mph - 0.03 in   Clear
9:55 AM 75.2 °F - 59.0 °F 57% 29.80 in 10.0 mi East 19.6 mph - 0.03 in   Clear
10:15 AM 77.0 °F - 60.8 °F 57% 29.80 in 10.0 mi ESE 13.8 mph 18.4 mph N/A   Clear
10:35 AM 77.0 °F - 60.8 °F 57% 29.79 in 10.0 mi East 13.8 mph 19.6 mph N/A   Clear
10:55 AM 78.8 °F - 60.8 °F 54% 29.80 in 10.0 mi ESE 15.0 mph - N/A   Clear
11:15 AM 77.0 °F - 60.8 °F 57% 29.81 in 10.0 mi SSE 5.8 mph - N/A   Clear
11:35 AM 80.6 °F 81.5 °F 60.8 °F 51% 29.81 in 10.0 mi SSE 9.2 mph - N/A   Clear
11:55 AM 78.8 °F - 60.8 °F 54% 29.83 in 10.0 mi ESE 3.5 mph - N/A   Clear
12:15 PM 78.8 °F - 62.6 °F 57% 29.78 in 10.0 mi East 13.8 mph - N/A   Partly Cloudy
12:35 PM 80.6 °F 81.8 °F 62.6 °F 54% 29.75 in 10.0 mi ESE 18.4 mph 21.9 mph N/A   Clear
12:55 PM 78.8 °F - 62.6 °F 57% 29.75 in 10.0 mi ESE 15.0 mph - N/A   Clear
1:15 PM 82.4 °F 83.4 °F 62.6 °F 51% 29.74 in 10.0 mi ESE 15.0 mph - N/A   Clear
1:35 PM 84.2 °F 85.6 °F 64.4 °F 51% 29.73 in 10.0 mi ESE 15.0 mph - N/A   Clear
1:55 PM 87.8 °F 89.4 °F 64.4 °F 46% 29.73 in 10.0 mi ESE 13.8 mph 18.4 mph N/A   Clear
2:15 PM 87.8 °F 89.4 °F 64.4 °F 46% 29.72 in 10.0 mi SE 11.5 mph 16.1 mph N/A   Clear
2:35 PM 89.6 °F 91.1 °F 64.4 °F 43% 29.72 in 10.0 mi SSE 11.5 mph 19.6 mph N/A   Clear
2:55 PM 91.4 °F 93.2 °F 64.4 °F 41% 29.71 in 10.0 mi SE 12.7 mph - N/A   Clear
3:15 PM 91.4 °F 93.2 °F 64.4 °F 41% 29.70 in 10.0 mi SSE 9.2 mph 18.4 mph N/A   Clear
3:35 PM 91.4 °F 93.2 °F 64.4 °F 41% 29.69 in 10.0 mi SSE 9.2 mph 17.3 mph N/A   Clear
3:55 PM 93.2 °F 94.9 °F 64.4 °F 38% 29.69 in 10.0 mi South 10.4 mph 18.4 mph N/A   Clear
4:15 PM 93.2 °F 94.1 °F 62.6 °F 36% 29.68 in 10.0 mi SSE 11.5 mph - N/A   Clear
4:35 PM 93.2 °F 94.1 °F 62.6 °F 36% 29.66 in 10.0 mi ESE 10.4 mph - N/A   Clear
4:55 PM 95.0 °F 95.2 °F 60.8 °F 32% 29.65 in 10.0 mi South 9.2 mph - N/A   Clear
5:15 PM 93.2 °F 93.3 °F 60.8 °F 34% 29.64 in 10.0 mi SSE 8.1 mph - N/A   Clear
5:35 PM 93.2 °F 92.6 °F 59.0 °F 32% 29.62 in 10.0 mi SSE 3.5 mph - N/A   Clear
5:55 PM 91.4 °F 91.4 °F 60.8 °F 36% 29.61 in 10.0 mi SE 8.1 mph - N/A   Clear
6:15 PM 87.8 °F 91.4 °F 68.0 °F 52% 29.58 in 10.0 mi ESE 11.5 mph - N/A   Clear
6:35 PM 87.8 °F 91.4 °F 68.0 °F 52% 29.63 in 8.0 mi NNW 11.5 mph - N/A Thunderstorm Thunderstorm
6:55 PM 71.6 °F - 68.0 °F 88% 29.68 in 2.0 mi North 20.7 mph 34.5 mph 0.42 in Thunderstorm Thunderstorm
7:15 PM 69.8 °F - 62.6 °F 78% 29.68 in 10.0 mi NW 36.8 mph 47.2 mph 0.01 in Thunderstorm Partly Cloudy
7:35 PM 69.8 °F - 62.6 °F 78% 29.74 in 10.0 mi NNW 38.0 mph 47.2 mph 0.01 in   Clear
7:55 PM 68.0 °F - 57.2 °F 68% 29.78 in 10.0 mi NNW 31.1 mph 46.0 mph 0.01 in   Clear
8:15 PM 66.2 °F - 55.4 °F 68% 29.79 in 10.0 mi NNW 28.8 mph 39.1 mph N/A   Scattered Clouds
8:35 PM 66.2 °F - 53.6 °F 64% 29.80 in 10.0 mi NNW 28.8 mph 39.1 mph N/A   Scattered Clouds
8:55 PM 66.2 °F - 53.6 °F 64% 29.82 in 10.0 mi NNW 23.0 mph 34.5 mph N/A   Mostly Cloudy
9:15 PM 64.4 °F - 51.8 °F 64% 29.84 in 10.0 mi North 21.9 mph 28.8 mph N/A   Scattered Clouds
9:35 PM 64.4 °F - 50.0 °F 59% 29.84 in 10.0 mi North 21.9 mph 31.1 mph N/A   Scattered Clouds
9:55 PM 64.4 °F - 50.0 °F 59% 29.85 in 10.0 mi North 20.7 mph 29.9 mph N/A   Overcast
10:15 PM 64.4 °F - 50.0 °F 59% 29.87 in 10.0 mi North 13.8 mph - N/A   Mostly Cloudy
10:35 PM 64.4 °F - 48.2 °F 56% 29.87 in 10.0 mi North 12.7 mph - N/A   Overcast
10:55 PM 64.4 °F - 48.2 °F 56% 29.87 in 10.0 mi North 16.1 mph - N/A   Scattered Clouds
11:15 PM 62.6 °F - 48.2 °F 59% 29.89 in 10.0 mi North 9.2 mph - N/A   Clear
11:35 PM 62.6 °F - 46.4 °F 55% 29.89 in 10.0 mi North 8.1 mph - N/A   Clear
11:55 PM 62.6 °F - 46.4 °F 55% 29.90 in 10.0 mi North 10.4 mph - N/A   Clear